GFA144 OBBI-VRMM

Flight info

Callsign GFA144
Flight time N/A
Altitude 33000
Route TULUB N685 KAPUM N318 LAKLU/N0463F350 N318 TOLDA P570 KITAL L894 ELBET ELBET1B
Aircraft A321/M-SDE3FGHIRWY/LB1

Departure

Time 2026-04-30 12:26
Airport Bahrain International Airport (OBBI)

Arrival

Time N/A
Airport Velana International Airport (VRMM)
Time Latitude Longitude Altitude Speed Heading
2026-04-30 12:10 26.26676 50.63304 21 ft 0 kts 211°
2026-04-30 12:16 26.26685 50.63310 21 ft 4 kts 208°
2026-04-30 12:16 26.26710 50.63322 21 ft 4 kts 195°
2026-04-30 12:16 26.26736 50.63327 25 ft 4 kts 179°
2026-04-30 12:16 26.26762 50.63323 23 ft 4 kts 159°
2026-04-30 12:17 26.26800 50.63290 21 ft 0 kts 122°
2026-04-30 12:20 26.26797 50.63296 21 ft 1 kts 122°
2026-04-30 12:20 26.26789 50.63310 22 ft 3 kts 122°
2026-04-30 12:20 26.26785 50.63338 21 ft 6 kts 83°
2026-04-30 12:20 26.26821 50.63385 20 ft 11 kts 41°
2026-04-30 12:21 26.26811 50.63477 21 ft 15 kts 124°
2026-04-30 12:21 26.26744 50.63588 20 ft 19 kts 122°
2026-04-30 12:21 26.26668 50.63725 21 ft 23 kts 121°
2026-04-30 12:21 26.26578 50.63889 21 ft 26 kts 122°
2026-04-30 12:22 26.26478 50.64061 20 ft 27 kts 123°
2026-04-30 12:22 26.26375 50.64236 20 ft 27 kts 122°
2026-04-30 12:22 26.26273 50.64413 20 ft 27 kts 123°
2026-04-30 12:22 26.26171 50.64588 19 ft 27 kts 123°
2026-04-30 12:23 26.26072 50.64762 21 ft 21 kts 122°
2026-04-30 12:23 26.26011 50.64872 21 ft 14 kts 116°
2026-04-30 12:23 26.26023 50.64940 21 ft 0 kts 48°
2026-04-30 12:24 26.26030 50.64948 21 ft 3 kts 48°
2026-04-30 12:24 26.26061 50.64976 21 ft 8 kts 34°
2026-04-30 12:24 26.26109 50.65007 21 ft 8 kts 18°
2026-04-30 12:25 26.26150 50.64978 21 ft 7 kts 305°
2026-04-30 12:25 26.26152 50.64975 21 ft 0 kts 305°
2026-04-30 12:25 26.26171 50.64945 21 ft 21 kts 305°
2026-04-30 12:26 26.26380 50.64585 19 ft 88 kts 302°
2026-04-30 12:26 26.26816 50.63831 21 ft 141 kts 302°
2026-04-30 12:26 26.27409 50.62798 229 ft 164 kts 307°
2026-04-30 12:26 26.28052 50.61761 788 ft 164 kts 319°
2026-04-30 12:27 26.29039 50.61220 1330 ft 158 kts 359°
2026-04-30 12:27 26.30145 50.61384 1584 ft 169 kts 14°
2026-04-30 12:27 26.31141 50.62196 1712 ft 197 kts 52°
2026-04-30 12:27 26.31402 50.63803 1838 ft 235 kts 94°